| time (UTC) | temp F | wind direction | speed MPH | gust MPH | rain 1hr in | rain 24hr in | rain mn in | humidity % | barometer mb |
| 20260505041548 | 43 | 205 | 12.0 | 17.0 | 0.00 | 0.23 | 0.00 | 86 | 1005.7 |
| 20260505040031 | 43 | 205 | 11.0 | 17.0 | 0.00 | 0.23 | 0.00 | 86 | 1005.5 |
| 20260505034528 | 43 | 205 | 12.0 | 19.0 | 0.00 | 0.23 | 0.00 | 86 | 1005.2 |
| 20260505033026 | 43 | 205 | 8.0 | 18.0 | 0.00 | 0.23 | 0.00 | 85 | 1005.0 |
| 20260505031522 | 43 | 205 | 13.0 | 20.0 | 0.00 | 0.23 | 0.00 | 86 | 1004.8 |
| 20260505030021 | 43 | 205 | 11.0 | 18.0 | 0.01 | 0.23 | 0.00 | 86 | 1004.6 |
| 20260505024522 | 43 | 205 | 11.0 | 20.0 | 0.02 | 0.23 | 0.23 | 86 | 1004.4 |
| 20260505023017 | 42 | 205 | 12.0 | 19.0 | 0.02 | 0.23 | 0.23 | 87 | 1004.2 |
| 20260505021515 | 43 | 205 | 11.0 | 18.0 | 0.02 | 0.23 | 0.23 | 86 | 1004.2 |
| 20260505020017 | 44 | 205 | 12.0 | 18.0 | 0.02 | 0.22 | 0.22 | 84 | 1004.0 |
| 20260505014512 | 45 | 205 | 14.0 | 20.0 | 0.00 | 0.20 | 0.20 | 80 | 1003.8 |
| 20260505013011 | 46 | 205 | 13.0 | 28.0 | 0.00 | 0.20 | 0.20 | 78 | 1003.6 |
| 20260505011510 | 45 | 205 | 13.0 | 22.0 | 0.00 | 0.20 | 0.20 | 79 | 1003.3 |
| 20260505010007 | 45 | 205 | 14.0 | 19.0 | 0.00 | 0.22 | 0.20 | 77 | 1003.2 |
| 20260505004507 | 45 | 205 | 12.0 | 20.0 | 0.00 | 0.22 | 0.20 | 75 | 1003.2 |
| 20260505003006 | 45 | 205 | 11.0 | 18.0 | 0.00 | 0.22 | 0.20 | 73 | 1003.3 |
| 20260505001504 | 46 | 205 | 16.0 | 24.0 | 0.00 | 0.22 | 0.20 | 72 | 1003.1 |
| 20260505000003 | 45 | 205 | 12.0 | 20.0 | 0.00 | 0.25 | 0.20 | 73 | 1002.8 |
| 20260504234614 | 44 | 205 | 13.0 | 19.0 | 0.00 | 0.25 | 0.20 | 74 | 1002.4 |
| 20260504233108 | 44 | 205 | 11.0 | 18.0 | 0.00 | 0.25 | 0.20 | 75 | 1002.4 |
| 20260504231557 | 43 | 205 | 10.0 | 14.0 | 0.00 | 0.25 | 0.20 | 75 | 1002.1 |
| 20260504230056 | 43 | 205 | 9.0 | 15.0 | 0.00 | 0.25 | 0.20 | 74 | 1002.1 |
| 20260504224608 | 44 | 205 | 10.0 | 16.0 | 0.00 | 0.32 | 0.20 | 73 | 1001.9 |
| 20260504223054 | 44 | 205 | 10.0 | 14.0 | 0.00 | 0.32 | 0.20 | 73 | 1001.9 |
| 20260504221555 | 45 | 205 | 8.0 | 16.0 | 0.00 | 0.32 | 0.20 | 72 | 1001.8 |
| 20260504220051 | 45 | 205 | 9.0 | 18.0 | 0.00 | 0.32 | 0.20 | 71 | 1001.7 |
| 20260504214550 | 46 | 205 | 11.0 | 17.0 | 0.00 | 0.39 | 0.20 | 71 | 1001.5 |
| 20260504213114 | 46 | 205 | 9.0 | 16.0 | 0.00 | 0.39 | 0.20 | 71 | 1001.4 |
| 20260504211546 | 47 | 205 | 10.0 | 20.0 | 0.00 | 0.39 | 0.20 | 72 | 1001.3 |
| 20260504210047 | 47 | 205 | 9.0 | 17.0 | 0.00 | 0.39 | 0.20 | 74 | 1001.1 |
| 20260504204542 | 46 | 205 | 13.0 | 23.0 | 0.00 | 0.44 | 0.20 | 74 | 1000.7 |
| 20260504203040 | 46 | 205 | 12.0 | 22.0 | 0.00 | 0.44 | 0.20 | 74 | 1000.6 |
| 20260504201537 | 46 | 205 | 13.0 | 23.0 | 0.00 | 0.44 | 0.20 | 75 | 1000.3 |
| 20260504200033 | 46 | 205 | 12.0 | 17.0 | 0.00 | 0.44 | 0.20 | 77 | 1000.1 |
| 20260504194529 | 46 | 205 | 12.0 | 20.0 | 0.00 | 0.49 | 0.20 | 79 | 1000.0 |
| 20260504193027 | 45 | 205 | 10.0 | 15.0 | 0.00 | 0.49 | 0.20 | 82 | 999.7 |
| 20260504191525 | 45 | 205 | 9.0 | 18.0 | 0.00 | 0.49 | 0.20 | 82 | 999.7 |
| 20260504190023 | 44 | 205 | 9.0 | 18.0 | 0.00 | 0.49 | 0.20 | 83 | 999.6 |
| 20260504184521 | 44 | 205 | 10.0 | 16.0 | 0.00 | 0.49 | 0.20 | 84 | 999.5 |
| 20260504183023 | 44 | 217 | 9.0 | 18.0 | 0.00 | 0.49 | 0.20 | 84 | 999.4 |
| 20260504181518 | 43 | 189 | 7.0 | 15.0 | 0.00 | 0.49 | 0.20 | 85 | 999.2 |
| 20260504180015 | 43 | 244 | 13.0 | 23.0 | 0.00 | 0.49 | 0.20 | 85 | 999.2 |
| 20260504174512 | 42 | 205 | 10.0 | 17.0 | 0.00 | 0.49 | 0.20 | 87 | 999.1 |
| 20260504173023 | 42 | 232 | 12.0 | 21.0 | 0.00 | 0.49 | 0.20 | 88 | 998.8 |
| 20260504171517 | 41 | 216 | 7.0 | 17.0 | 0.00 | 0.49 | 0.20 | 89 | 998.6 |
| 20260504081527 | 37 | 247 | 10.0 | 15.0 | 0.03 | 0.37 | 0.09 | 95 | 977.3 |
| 20260504050001 | 40 | 205 | 3.0 | 6.0 | 0.00 | 0.28 | 0.00 | 88 | 975.3 |
| 20260504044604 | 41 | 205 | 4.0 | 8.0 | 0.00 | 0.28 | 0.00 | 87 | 975.7 |
| 20260504043056 | 41 | 205 | 0.0 | 8.0 | 0.00 | 0.28 | 0.00 | 87 | 975.9 |